GW2822 Weather Reports


time (UTC)temp
C
wind
direction
speed
KPH
gust
KPH
rain 1hr
cm
rain 24hr
cm
rain mn
cm
humidity
%
barometer
mb
20260506134522 22 73 1.6 6.4 0.00 0.00 0.00 95 1006.6
20260506134038 22 69 1.6 6.4 0.00 0.00 0.00 95 1006.2
20260506133547 22 58 3.2 8.0 0.00 0.00 0.00 95 1006.1
20260506133006 22 86 3.2 8.0 0.00 0.00 0.00 95 1006.1
20260506132522 22 88 1.6 6.4 0.00 0.00 0.00 95 1006.1
20260506132034 22 69 1.6 6.4 0.00 0.00 0.00 96 1006.2
20260506131546 22 68 3.2 6.4 0.00 0.00 0.00 95 1006.2
20260506131010 22 71 1.6 6.4 0.00 0.00 0.00 95 1006.2
20260506130519 22 77 1.6 6.4 0.00 0.00 0.00 95 1006.2
20260506130013 22 82 3.2 6.4 0.00 0.00 0.00 95 1006.0
20260506125526 22 86 1.6 6.4 0.00 0.00 0.00 95 1006.0
20260506125040 22 66 1.6 6.4 0.00 0.00 0.00 95 1005.9
20260506124550 22 90 1.6 11.3 0.00 0.00 0.00 95 1005.8
20260506124009 22 98 3.2 11.3 0.00 0.00 0.00 95 1005.7
20260506123522 22 88 4.8 8.0 0.00 0.00 0.00 95 1005.6
20260506123030 22 102 3.2 6.4 0.00 0.00 0.00 95 1005.7
20260506122547 22 75 3.2 6.4 0.00 0.00 0.00 95 1005.8
20260506122053 22 69 1.6 4.8 0.00 0.00 0.00 95 1005.7
20260506121510 22 133 1.6 4.8 0.00 0.00 0.00 95 1005.7
20260506121026 22 134 1.6 4.8 0.00 0.00 0.00 95 1005.8
20260506120540 22 134 1.6 4.8 0.00 0.00 0.00 95 1005.8
20260506120041 22 163 1.6 3.2 0.00 0.00 0.00 95 1005.7
20260506115552 22 163 1.6 3.2 0.00 0.00 0.00 95 1005.8
20260506115009 22 163 0.0 1.6 0.00 0.00 0.00 95 1005.7
20260506114524 22 163 0.0 1.6 0.00 0.00 0.00 95 1005.7
20260506114036 22 163 0.0 1.6 0.00 0.00 0.00 94 1005.6
20260506113550 22 163 0.0 1.6 0.00 0.00 0.00 94 1005.6
20260506113010 22 163 0.0 1.6 0.00 0.00 0.00 94 1005.7
20260506112526 22 163 0.0 3.2 0.00 0.00 0.00 94 1005.8
20260506112039 22 163 0.0 3.2 0.00 0.00 0.00 94 1005.8
20260506111552 22 163 0.0 3.2 0.00 0.00 0.00 94 1005.8
20260506111008 22 163 0.0 1.6 0.00 0.00 0.00 94 1005.8
20260506110521 22 163 0.0 1.6 0.00 0.00 0.00 94 1005.7
20260506110016 22 163 0.0 1.6 0.00 0.00 0.00 94 1005.8
20260506105531 22 163 0.0 1.6 0.00 0.00 0.00 94 1005.7
20260506105046 22 163 0.0 1.6 0.00 0.00 0.00 94 1005.6
20260506104503 22 163 0.0 3.2 0.00 0.00 0.00 94 1005.5
20260506104021 22 163 0.0 3.2 0.00 0.00 0.00 94 1005.6
20260506103529 22 163 0.0 4.8 0.00 0.00 0.00 94 1005.5
20260506103039 22 163 0.0 8.0 0.00 0.00 0.00 94 1005.5
20260506102556 22 163 3.2 9.7 0.00 0.00 0.00 94 1005.4
20260506102010 22 196 4.8 11.3 0.00 0.00 0.00 94 1005.5
20260506101526 22 185 4.8 9.7 0.00 0.00 0.00 94 1005.5
20260506101035 22 190 1.6 9.7 0.00 0.00 0.00 94 1005.5
20260506100552 22 194 3.2 12.9 0.00 0.00 0.00 94 1005.4
20260506100047 22 190 3.2 12.9 0.00 0.00 0.00 94 1005.3